Regional Weather Roundup
Issued by NWS Northern Indiana

Home | Current Version | Previous Version | Graphics & Text | Print | Product List | Glossary On
Versions: 1 2 3 4 5 6 7 8 9 10 11 12 13 14 15 16 17 18 19 20 21 22 23 24 25 26 27 28 29 30 31 32 33 34 35 36 37 38 39 40 41 42 43 44 45 46 47 48 49 50
000
ASUS43 KIWX 230110
RWRIWX

KIWX WEATHER ROUNDUP
NATIONAL WEATHER SERVICE NORTHERN INDIANA
800 PM EST WED FEB 22 2017

NOTE: "FAIR" INDICATES FEW OR NO CLOUDS BELOW 12,000 FEET WITH NO
SIGNIFICANT WEATHER AND/OR OBSTRUCTIONS TO VISIBILITY.

* THESE STATIONS ARE NOT UNDER NWS QUALITY CONTROL. THEY ALSO MAY NOT
  REPORT WEATHER SUCH AS PRECIPITATION OR FOG.

INZ001>027-230200-
NORTHERN INDIANA

CITY           SKY/WX    TMP DP  RH WIND       PRES   REMARKS
GARY*          CLEAR     63  55  77 S9        29.64F
VALPARAISO     PTCLDY    60  55  83 S10       29.67F
MICHIGAN CITY* CLEAR     59  54  82 S8G18     29.66F
LAPORTE*       CLEAR     58  53  85 S10       29.68F
KNOX*          CLEAR     55  36  47 S10       29.69F
SOUTH BEND     CLEAR     57  53  86 S10       29.69F
ELKHART*       CLEAR     55  52  88 S7        29.70F
GOSHEN         CLEAR     58  51  78 S12       29.70F
MONTICELLO*    CLEAR     59  53  80 SE6       29.70F
LOGANSPORT*    PTCLDY    54  52  94 S7        29.73F
ROCHESTER*     CLEAR     57  52  82 S5        29.72F
WARSAW*        CLEAR     55  52  88 S5        29.72S
ANGOLA*        CLOUDY    57  48  72 S6        29.73F
FORT WAYNE     PTCLDY    54  51  90 S9        29.75F
HUNTINGTON*    PTCLDY    57  54  92 S5        29.74F
PERU/GRISSOM   CLEAR     56  56 100 S8        29.72F
MARION*        CLEAR     59  54  83 S10       29.76S

$$
INZ028>050-230200-
CENTRAL INDIANA

CITY           SKY/WX    TMP DP  RH WIND       PRES   REMARKS
LAFAYETTE      CLEAR     62  55  77 S9        29.70F
KOKOMO*        CLEAR     57  53  86 S8        29.75F
MUNCIE*        MOCLDY    61  54  77 S8        29.77F
INDIANAPOLIS   MOCLDY    60  54  80 S7        29.77S

$$
MIZ043>046-050>051-056>058-064>065-071>073-077>080-230200-
SOUTHWEST LOWER MICHIGAN

CITY           SKY/WX    TMP DP  RH WIND       PRES   REMARKS
BATTLE CREEK   CLEAR     57  53  86 S15       29.69F
BENTON HARBOR  CLEAR     59  52  77 S9        29.64F
COLDWATER*     PTCLDY    57  52  82 S8        29.72F
HILLSDALE*     CLOUDY    55  52  88 S7        29.74S
HOLLAND        CLEAR     58  52  80 S14G22    29.62F
GRAND RAPIDS   MOCLDY    57  51  80 S16       29.63F
KALAMAZOO      CLEAR     57  51  80 S9        29.69F
STURGIS*       PTCLDY    55  52  89 S9        29.70F
THREE RIVERS*  FAIR      56  52  87 S10       29.70F

$$
OHZ001>008-015>018-024>025-230200-
NORTHWEST OHIO

CITY           SKY/WX    TMP DP  RH WIND       PRES   REMARKS
WAUSEON*       CLOUDY    59  54  82 S8        29.75F
DEFIANCE       CLOUDY    59  51  75 S8        29.76S
FINDLAY        CLOUDY    60  53  77 S12       29.78R
TOLEDO EXPRESS CLOUDY    59  55  87 S7        29.76S
TOLEDO METCALF CLOUDY    59  55  87 S9        29.77S
LIMA           CLOUDY    59  55  87 S9        29.79R

$$
AND FOR LAKE MICHIGAN COASTAL AND OPEN LAKE BUOY OBSERVATIONS

STATION/POSITION TEMP    WIND        PRES    VSBY  WAVE
                 AIR SEA DIR/SP/G                  HT/PER
                 (F)     (DEG/KT/KT) (MB)    (MI)  (FT/S)
CALUMET HARBOR    63     170/ 12/ 15 1002.6F
MICHIGAN CITY     62     150/ 15/ 17   N/A
BURNS HARBOR      62     180/ 12/ 20 1004.4F

$$
&&




USA.gov is the U.S. government's official web portal to all federal, state and local government web resources and services.